Weather in Shiryaevo

Ukraine / Odesa District     47˚23′16″N   30˚11′27″E
temp.,
°C
wind,
m/s
gust,
m/s
humid.,
%
clouds,
%
prec.,
mm/h
press.,
hPa
HPBL,
m
28 november, sat
sat2823:00+2˚nw226688 0.0 102122
02:00+1˚nnw227494 0.0 102022
05:00+1˚nw1284100 0.0 101822
08:00+3˚nnw128498 0.0 101932
11:00+5˚n2377100 0.0 1019321
14:00+6˚n3374100 0.0 1018415
17:00+5˚n2482100 0.0 1018146
20:00+4˚n2485100 0.0 1019186
29 november, sun
sun2923:00+4˚nne1180100 0.0 101925
02:00+3˚nnw1283100 0.0 101924
05:00+2˚n1292100 0.0 101922
08:00+3˚ne1192100 0.0 102091
11:00+4˚ese1183100 0.0 1020346
14:00+4˚ne1284100 0.1 1020335
17:00+4˚ne2391100 0.1 1020280
20:00+4˚nne2394100 0.3 1021214
30 november, mon
mon3023:00+4˚nne3494100 0.0 1021226
02:00+3˚n3596100 0.0 1021164
05:00+2˚n4888100 0.0 1021315
08:00+2˚n4885100 0.0 1022316
11:00+4˚n5872100 0.0 1023479
14:00+2˚n6894100 0.6 1023431
17:00+2˚n71095100 1.3 1024472
20:00+1˚n5996100 3.3 1025468
1 december, tue
tue123:00+1˚n71196100 1.4 1025546
02:00n71296100 1.7 1025546
05:00n61096100 0.6 1025526
08:00n71096100 1.6 1026545
11:00+1˚nne61096100 0.7 1026474
14:00+1˚nne5897100 0.9 1025306
17:00+1˚nne5897100 0.1 1025297
20:00+1˚nne3698100 0.1 1026222
2 december, wed
wed223:00+2˚nne3498100 0.0 1026177
02:00+2˚nne3498100 0.0 1026209
05:00+1˚nne3596100 0.0 1026241
08:00nne359599 0.0 1026270
11:00+2˚ne348591 0.0 1027448
14:00+3˚ne337996 0.0 1026543
17:00+2˚nne3489100 0.0 1026307
20:00+2˚nne3493100 0.1 1026234